Back to catalog

FENGYUN 1C DEB

AliveLEO
NORAD 31487·DEBRIS·🇨🇳 China

Launched May 10, 1999 from Taiyuan Satellite Launch Center

Loading…

Next Passes (next 24 hours)

TLE

FreshSource: Space-Track

Epoch: Sep 14, 2026, 14:10 UTC

1 31487U 99025BWB 26257.59089213  .00001124  00000-0  78252-3 0  9992
2 31487 102.4030 167.1714 0119638   0.0657 120.2411 13.98716307982676

Track FENGYUN 1C DEB in real time with AllMySat

Download on the App Store